Location: Huesca
(42.1318°N, 0.4078°W)
Time: 21:31:51
(UTC+02:00)

DIWATA 2B (PO-101) - Pass Details

Date: 01 May 2024
Orbit: 575 x 589 km, 98.1° (Epoch: 20 May)

Event Time Altitude Azimuth Distance (km) Brightness Sun altitude
Rises 04:22:05 0° 129° (SE) 2,811 ? -23.9°
Reaches altitude 10° 04:24:42 10° 112° (ESE) 1,914 ? -23.5°
Maximum altitude 04:27:41 19° 66° (ENE) 1,407 ? -23.2°
Drops below altitude 10° 04:30:39 10° 20° (NNE) 1,920 ? -22.8°
Sets 04:33:17 0° 3° (N) 2,823 ? -22.5°
